TimeMDT,TemperatureF,Dew PointF,Humidity,Sea Level PressureIn,VisibilityMPH,Wind Direction,Wind SpeedMPH,Gust SpeedMPH,PrecipitationIn,Events,Conditions,WindDirDegrees,DateUTC
12:53 AM,30.0,28.0,92,29.66,10.0,Calm,Calm,-,N/A,,Scattered Clouds,0,2012-10-23 06:53:00
1:37 AM,32.0,28.4,87,29.66,10.0,Calm,Calm,-,N/A,,Overcast,0,2012-10-23 07:37:00
1:53 AM,32.0,28.9,88,29.68,10.0,ENE,8.1,-,N/A,,Mostly Cloudy,60,2012-10-23 07:53:00
2:53 AM,34.0,23.0,64,29.70,10.0,Variable,4.6,-,N/A,,Clear,0,2012-10-23 08:53:00
3:53 AM,28.9,21.0,72,29.73,10.0,Variable,4.6,-,N/A,,Clear,0,2012-10-23 09:53:00
4:53 AM,26.1,19.9,78,29.75,10.0,NW,3.5,-,N/A,,Clear,320,2012-10-23 10:53:00
5:53 AM,24.1,19.9,84,29.77,10.0,Calm,Calm,-,N/A,,Clear,0,2012-10-23 11:53:00
6:53 AM,25.0,19.0,78,29.80,10.0,Calm,Calm,-,N/A,,Scattered Clouds,0,2012-10-23 12:53:00
7:53 AM,21.0,18.0,88,29.85,10.0,NNW,3.5,-,N/A,,Partly Cloudy,340,2012-10-23 13:53:00
8:06 AM,21.2,19.4,93,29.75,2.0,Calm,Calm,-,N/A,,Mostly Cloudy,0,2012-10-23 14:06:00
8:10 AM,21.2,19.4,93,29.75,0.8,Calm,Calm,-,N/A,,Mist,0,2012-10-23 14:10:00
8:44 AM,19.4,17.6,93,29.77,3.0,SE,3.5,-,N/A,,Overcast,130,2012-10-23 14:44:00
8:53 AM,19.4,17.6,93,29.77,10.0,Calm,Calm,-,N/A,,Mostly Cloudy,0,2012-10-23 14:53:00
9:02 AM,21.2,17.6,86,29.77,10.0,Calm,Calm,-,N/A,,Scattered Clouds,0,2012-10-23 15:02:00
9:53 AM,25.0,21.0,85,29.84,10.0,NW,3.5,-,N/A,,Clear,320,2012-10-23 15:53:00
10:53 AM,27.0,24.1,89,29.84,10.0,NW,3.5,-,N/A,,Mostly Cloudy,320,2012-10-23 16:53:00
11:53 AM,30.2,26.6,86,29.75,10.0,NW,5.8,-,N/A,,Overcast,310,2012-10-23 17:53:00
12:53 PM,36.0,19.9,52,29.79,10.0,Calm,Calm,-,N/A,,Scattered Clouds,0,2012-10-23 18:53:00
1:53 PM,37.0,21.9,54,29.75,10.0,SSE,3.5,-,N/A,,Partly Cloudy,150,2012-10-23 19:53:00
2:53 PM,37.0,24.1,59,29.75,10.0,South,13.8,23.0,N/A,,Overcast,190,2012-10-23 20:53:00
3:03 PM,33.8,26.6,75,29.74,1.8,SSW,19.6,24.2,0.00,Snow,Light Snow,200,2012-10-23 21:03:00
3:09 PM,32.0,28.4,87,29.74,0.8,SSW,13.8,24.2,0.00,Snow,Light Snow,210,2012-10-23 21:09:00
3:21 PM,33.8,28.4,81,29.74,3.0,South,6.9,-,0.00,Snow,Light Snow,190,2012-10-23 21:21:00
3:53 PM,33.1,28.0,82,29.82,9.0,Variable,3.5,-,0.00,,Overcast,0,2012-10-23 21:53:00
4:04 PM,32.0,28.4,87,29.76,2.5,Variable,4.6,-,0.00,Snow,Light Snow,0,2012-10-23 22:04:00
4:09 PM,32.0,28.4,87,29.75,1.0,South,6.9,-,0.00,Snow,Light Snow,190,2012-10-23 22:09:00
4:22 PM,30.2,28.4,93,29.75,2.0,ESE,5.8,-,0.00,Snow,Light Snow,120,2012-10-23 22:22:00
4:30 PM,30.2,28.4,93,29.75,8.0,ESE,4.6,-,0.00,Snow,Light Snow,120,2012-10-23 22:30:00
4:53 PM,30.9,27.0,85,29.84,10.0,Calm,Calm,-,0.00,,Overcast,0,2012-10-23 22:53:00
5:53 PM,33.1,26.1,75,29.87,10.0,Calm,Calm,-,N/A,,Clear,0,2012-10-23 23:53:00
6:53 PM,32.0,26.1,79,29.89,8.0,NNE,3.5,-,0.00,,Mostly Cloudy,30,2012-10-24 00:53:00
7:02 PM,30.2,26.6,86,29.81,10.0,Calm,Calm,-,N/A,,Scattered Clouds,0,2012-10-24 01:02:00
7:53 PM,33.1,23.0,66,29.95,10.0,SW,3.5,-,N/A,,Mostly Cloudy,230,2012-10-24 01:53:00
8:53 PM,30.0,25.0,82,29.99,10.0,West,5.8,-,N/A,,Scattered Clouds,280,2012-10-24 02:53:00
9:15 PM,30.2,24.8,80,29.87,10.0,West,3.5,-,N/A,,Mostly Cloudy,270,2012-10-24 03:15:00
9:53 PM,30.0,25.0,82,29.99,10.0,West,4.6,-,N/A,,Overcast,280,2012-10-24 03:53:00
10:53 PM,30.0,24.1,79,29.99,10.0,West,4.6,-,N/A,,Overcast,270,2012-10-24 04:53:00
11:53 PM,28.9,25.0,85,30.00,10.0,Calm,Calm,-,0.00,,Overcast,0,2012-10-24 05:53:00